Regional Weather Roundup
Issued by NWS

Home | Current Version | Previous Version | Graphics & Text | Print | Product List | Glossary On
Versions: 1 2 3 4 5 6 7 8 9 10 11 12 13 14 15 16 17 18 19 20 21 22 23 24 25 26 27 28 29 30 31 32 33 34 35 36 37 38 39 40 41 42 43 44 45 46 47 48 49 50
000
ASUS43 KBIS 010210
RWRND

NORTH DAKOTA REGIONAL WEATHER ROUNDUP
NATIONAL WEATHER SERVICE BISMARCK ND
900 PM CDT SUN APR 30 2017

NOTE: "FAIR" INDICATES FEW OR NO CLOUDS BELOW 12,000 FEET WITH NO
SIGNIFICANT WEATHER AND/OR OBSTRUCTIONS TO VISIBILITY.


NDZ001>003-009>011-017-010300-
NORTHWEST NORTH DAKOTA

CITY           SKY/WX    TMP DP  RH WIND       PRES   REMARKS
WILLISTON      CLOUDY    61  31  32 S6        29.79S
MINOT          FAIR      59  20  22 SE6       29.82F
MINOT AFB      CLEAR     54  26  33 SE6       29.81F
$$

NDZ018>021-031>035-040>046-010300-
SOUTHWEST NORTH DAKOTA

CITY           SKY/WX    TMP DP  RH WIND       PRES   REMARKS
BISMARCK       FAIR      51  30  44 SE7       29.86S
DICKINSON      FAIR      52  18  26 SW3       29.81F
GARRISON         N/A     51  22  31 SE6       29.83S
HETTINGER ARPT CLEAR     54  24  31 CALM      29.85F
$$

NDZ004>008-012>016-024-026-027-054-010300-
NORTHEAST NORTH DAKOTA

CITY           SKY/WX    TMP DP  RH WIND       PRES   REMARKS
GRAND FORKS    MOCLDY    55  31  39 E6        29.88S
GRND FRKS AFB  CLOUDY    53  26  35 E3        29.89S
DEVILS LAKE    FAIR      53  31  42 E7        29.90S
$$

NDZ022-023-025-028>030-036>039-047>053-010300-
SOUTHEAST NORTH DAKOTA

CITY           SKY/WX    TMP DP  RH WIND       PRES   REMARKS
FARGO          PTCLDY    50  21  32 E8        29.85S
JAMESTOWN      FAIR      49  31  49 NE6       29.86S
$$




USA.gov is the U.S. government's official web portal to all federal, state and local government web resources and services.